カタログに戻る

STARLINK-36090

運用中通信VLEO
NORAD 66855·PAYLOAD·🇺🇸 United States

打ち上げ Dec 2, 2025 から Cape Canaveral Space Force Station

Loading…

次のパス (今後24時間)

TLE

最新Source: CelesTrak SupGP

元期: Sep 15, 2026, 02:34 UTC

1 66855C 25281H   26258.10743056  .00029312  00000+0  10617-2 0  2588
2 66855  43.0028 353.3644 0001727 265.8274 282.1977 15.27564585    13

AllMySatでSTARLINK-36090をリアルタイム追跡

Download on the App Store